Regional Weather Roundup
Issued by NWS Sterling, VA

Home | Current Version | Previous Version | Graphics & Text | Print | Product List | Glossary On
Versions: 1 2 3 4 5 6 7 8 9 10 11 12 13 14 15 16 17 18 19 20 21 22 23 24 25 26 27 28 29 30 31 32 33 34 35 36 37 38 39 40 41 42 43 44 45 46 47 48 49 50
000
ASUS41 KLWX 110810
RWRLWX

REGIONAL WEATHER ROUNDUP
NATIONAL WEATHER SERVICE BALTIMORE MD/WASHINGTON DC
300 AM EST SUN DEC 11 2016

Note: "FAIR" indicates few or no clouds below 12,000 feet
with no significant weather and/or obstructions to visibility.
 TC=TEMPERATURE CELSIUS

 * =Non NWS site. Station does not report precipitation (e.g. rain,
    snow, etc.), thunder, or fog.

DCZ001-MDZ009-015-VAZ040>042-051-053>054-110900-
WASHINGTON METRO

CITY           SKY/WX    TMP DP  RH WIND       PRES   REMARKS
WASHINGTON NAT CLOUDY    30  14  51 N5        30.54R
DULLES         CLOUDY    24  17  74 CALM      30.52R
ANDREWS AFB    CLOUDY    24  20  82 S1        30.51R
QUANTICO       CLOUDY    28  19  69 NW3       30.56S
COLLEGE PARK*  CLOUDY    27  16  63 CALM      30.53R
LEESBURG*      CLOUDY    28  19  69 CALM      30.51F
GAITHERSBURG*  CLOUDY    25  14  63 CALM      30.53S

$$

MDZ006>007-011-014-110900-
BALTIMORE METRO

CITY           SKY/WX    TMP DP  RH WIND       PRES   REMARKS
BWI AIRPORT    CLOUDY    26  16  65 CALM      30.52R
MD SCIENCE CTR   N/A     30  12  47 MISG      30.53R
ANNAPOLIS      CLOUDY    29  13  51 CALM      30.54R
FORT MEADE*    PTCLDY    23  21  93 CALM      30.55R

$$

MDZ012-015-019>023-110900-
MARYLAND EASTERN SHORE

CITY           SKY/WX    TMP DP  RH WIND       PRES   REMARKS
OCEAN CITY     CLOUDY    26  17  68 NW7       30.54R
SALISBURY      CLOUDY    25  19  78 CALM      30.53R
BAY BRIDGE AP* CLOUDY    30  18  59 MISG      30.54R
CAMBRIDGE*     CLOUDY    27  19  74 CALM      30.54R
EASTON*        CLOUDY    26  18  70 CALM      30.57R

$$

MDZ017>025-110900-
SOUTHERN MARYLAND

CITY           SKY/WX    TMP DP  RH WIND       PRES   REMARKS
PATUXENT RIVER CLOUDY    31  16  54 NW8       30.54R WCI  23
ST INIGOES     CLOUDY    31  16  54 CALM      30.53R
LEONARDTOWN*   CLOUDY    28  18  64 CALM      30.55R

$$

MDZ003>005-110900-
NORTH CENTRAL MARYLAND

CITY           SKY/WX    TMP DP  RH WIND       PRES   REMARKS
FREDERICK*     CLOUDY    27  19  74 S3        30.53S
HAGERSTOWN APT   N/A     25  14  63 S3        30.47S
WESTMINSTER*     N/A     23  14  68 CALM      30.46S

$$

MDZ501>502-110900-
WESTERN MARYLAND

CITY           SKY/WX    TMP DP  RH WIND       PRES   REMARKS
OAKLAND*       CLOUDY    18  10  73 SW6       30.30R
CUMBERLAND*    NOT AVBL

$$

VAZ025>031-110900-
SHENANDOAH VALLEY

CITY           SKY/WX    TMP DP  RH WIND       PRES   REMARKS
WINCHESTER*    CLOUDY    23  18  80 CALM      30.48F
FRONT ROYAL*   CLOUDY    25  19  80 CALM      30.48S
LURAY*         CLOUDY    27  23  86 CALM      30.46F
NEW MARKET*    CLOUDY    24  16  71 CALM      30.46S
STAUNTON*      CLOUDY    24  16  73 CALM      30.46S
WAYNESBORO*    FAIR      24  14  65 SE3       30.43S

$$

WVZ021-048>050-054>055-110900-
EASTERN WEST VIRGINIA PANHANDLE

CITY           SKY/WX    TMP DP  RH WIND       PRES   REMARKS
MARTINSBURG    CLOUDY    24  16  71 W3        30.49R
PETERSBURG*    CLOUDY    24  17  75 CALM      30.47R

$$

VAZ036>039-050-110900-
CENTRAL FOOTHILLS

CITY           SKY/WX    TMP DP  RH WIND       PRES   REMARKS
CHARLOTTESVILL PTCLDY    28  16  60 CALM      30.51R
CULPEPER*      CLOUDY    27  19  72 CALM      30.53S
ORANGE*          N/A     27  19  74 CALM      30.53R
GORDONSVILLE*  FAIR      25  20  82 CALM      30.52R
WARRENTON*     CLOUDY    26  18  73 CALM      30.51F

$$

VAZ055>057-110900-
NORTH AND CENTRAL PIEDMONT

CITY           SKY/WX    TMP DP  RH WIND       PRES   REMARKS
FREDERICKSBRG* CLOUDY    27  21  78 CALM      30.54S
STAFFORD*      CLOUDY    24  20  85 CALM      30.58S

$$

NCZ024-NYZ072-PAZ021-071-VAZ022-071-110900-
OTHER REGIONAL OBSERVATIONS

CITY           SKY/WX    TMP DP  RH WIND       PRES   REMARKS
NEW YORK CITY  PTCLDY    29  16  58 VRB5      30.50R
PHILADELPHIA   CLOUDY    29  15  56 NW3       30.52S
PITTSBURGH     LGT SNOW  24  18  77 S5        30.42R
ROANOKE        CLOUDY    29  17  61 CALM      30.45S
RICHMOND       CLOUDY    28  16  60 CALM      30.54R
RALEIGH        CLOUDY    25  19  78 NE3       30.51S

$$

ANZ530>537-110900-
MARINE OBSERVATIONS

STATION/POSITION TIME  TEMP    WIND        PRES
                       AIR SEA DIR/SP/G
                 (UTC) (F)     (DEG/KT/KT) (MB)
THOMAS PT LIGHT  0800   30 44  320/  7/  8   N/A
BALT KEY BRIDGE  0742   30     240/  5/  6 1033.9R
COVE POINT       0742   32      20/  6/  9 1034.5R
LEWISETTA        0742   33 42  360/  4/  7 1034.1R
SOLOMONS ISLAND  0742   31 47  320/  6/  8   N/A
PINEY POINT      0748           20/  5/  6   N/A

$$




USA.gov is the U.S. government's official web portal to all federal, state and local government web resources and services.